weather.gov     
National Weather Service

Regional Weather Roundup
NWS Homepage
This page is being discontinued on March 12, 2014.
The same data is available at this site. Please update your bookmarks.
Thank you, and we apologize for the inconvenience.
Please send an email to SR-SRH.Webmaster@noaa.gov with any concerns.


Current Version
Previous Version:    01  02  03  04  05  06  07  08  09  10  11  12  13  14  15  16  17  18  19  20  21  22  23  24  25  26  27  28  29  30  
   31  32  33  34  35  36  37  38  39  40  41  42  43  44  45  46  47  48  49  50  51  52  53  54  55  56  57  58  59  60  
[Printable]
466
ASUS43 KEAX 261711
RWREAX

WEATHER ROUNDUP FOR EASTERN KANSAS AND NORTHWEST MISSOURI
NATIONAL WEATHER SERVICE KANSAS CITY/PLEASANT HILL MO
1200 PM CDT SAT JUL 26 2014

KSZ040-057-103>105-MOZ028-029-037-043-261800-
...KANSAS CITY METROPOLITAN AREA...

CITY           SKY/WX    TMP DP  RH WIND       PRES   REMARKS
K.C. INTL      CLOUDY    85  72  65 SW13      29.84R HX  91
K.C. DOWNTOWN  LGT RAIN  83  72  69 SW8G21    29.83S
LEES SUMMIT    LGT RAIN  79  70  74 SW14      29.86S
OLATHE - IXD   CLOUDY    83  70  64 S9        29.87R
OLATHE - OJC   CLOUDY    81  72  74 SW7       29.86S
LAWRENCE       CLOUDY    84  69  60 SW7       29.83F

$$

MOZ001>008-011>017-020>025-030>033-038>040-044>046-053-054-261800-
...NORTHERN AND CENTRAL MISSOURI...

CITY           SKY/WX    TMP DP  RH WIND       PRES   REMARKS
ST. JOSEPH     LGT RAIN  80  74  81 SW8       29.81S
MOSBY          CLOUDY    84  68  58 SW9       29.84R
WARRENSBURG    PTSUNNY   81  72  74 S7        29.86R
WHITEMAN AFB   PTSUNNY   85  62  44 SW15      29.86F
CLINTON        PTSUNNY   88  73  62 SW17      29.88S HX  96
SEDALIA        MOSUNNY   89  71  55 SW18G24   29.87F HX  95
WARSAW         NOT AVBL
MARSHALL         N/A     88  75  66 SW10      29.86R HAZE    HX  97
CHILLICOTHE      N/A     86  73  65 S9G18     29.84R HX  93
MOBERLY        CLOUDY    88  70  55 SW15      29.84F HX  92
KIRKSVILLE     PTSUNNY   86  75  69 SW9       29.84S HX  95

$$

MOZ041-047>049-056>058-063>065-088>090-097-261800-
...EASTERN AND SOUTHERN MISSOURI...

CITY           SKY/WX    TMP DP  RH WIND       PRES   REMARKS
ST. LOUIS INTL PTSUNNY   92  73  53 SW15      29.87S HX 100
SPIRIT OF STL  MOSUNNY   92  71  50 SW13G21   29.84F HX  98
COLUMBIA       MOSUNNY   93  72  50 SW16      29.86F HX 101
JEFFERSON CITY MOSUNNY   91  71  51 SW15G22   29.85F HX  97
MEXICO         PTSUNNY   91  77  62 SW12      29.84F HX 105
HANNIBAL       MOSUNNY   90  72  55 SW9G16    29.83F HX  96
ROLLA          SUNNY     93  69  45 W18G24    29.89F HX  98
LEBANON        MOSUNNY   93  68  43 SW10      29.95S HX  97
OSAGE BEACH    MOSUNNY   91  70  49 SW16      29.88F HX  97
SPRINGFIELD    SUNNY     92  70  48 SW14      29.96F HX  97
BRANSON        MOSUNNY   93  68  43 SW9G17    30.01F HX  97
NEVADA         MOSUNNY   90  73  58 SW15G24   29.90F HX  98
JOPLIN         SUNNY     93  69  45 SW23G29   29.94F HX  98
WEST PLAINS    SUNNY     88  71  57 SW14G23   29.99F HX  94

$$

IAZ060-094-KSZ022-034>040-054-083-096-NEZ052-066-093-261800-
...KANSAS...SOUTHEAST NEBRASKA AND IOWA...

CITY           SKY/WX    TMP DP  RH WIND       PRES   REMARKS
TOPEKA         CLOUDY    84  67  56 S8        29.82F
MANHATTAN      CLOUDY    86  66  51 SW12      29.81F
EMPORIA        CLOUDY    87  65  47 SW14      29.87S
CHANUTE        MOSUNNY   89  70  53 SW15G25   29.90S HX  94
WICHITA        PTSUNNY   90  65  43 SW16      29.87F HX  92
OMAHA          PTSUNNY   85  72  65 E18       29.82F HX  91
LINCOLN        CLOUDY    86  74  67 E7        29.83F HX  94
LAMONI         PTSUNNY   81  74  79 NE7       29.85S
DES MOINES     PTSUNNY   84  70  62 E8        29.84S

$$





U.S. Dept. of Commerce
NOAA National Weather Service
1325 East West Highway
Silver Spring, MD 20910
E-mail: w-nws.webmaster@noaa.gov
Page last modified: May 16, 2007
NATIONAL WEATHER SERVICE: for Safety, for Work, for Fun - FOR LIFE